www.pogodaiklimat.ru

Погода и климат >> Архив погоды >> Индия >> Kozhikode


ПОГОДА в Kozhikode

  • Прогноз погоды в Kozhikode
  • Монитор погоды в Kozhikode
  • Климат города

АРХИВ ПОГОДЫ в Kozhikode

Время (UTC), дата Ветер
(напр.,м/с)
 
Видим.   Явления Облачность Т
(С)
Тd
(С)
f
(%)
Тe
(С)
Тes
(С)
Комфортность P
(гПа)
Po
(гПа)
Тmin
(С)
Tmax
(С)
R
(мм)
R24
(мм)
S
(см)
00 11.11 штиль 0 4000 м 5/1 600 м
[Sc diur, vesp Ac trans Ci sp]
+25.2 +23.4 90 +34 +34 очень
душно
1009.3 1009.0
03 11.11 В 2 10 км 5/1 600 м
[Sc diur, vesp Ac trans Ci sp]
+27.2 +24.6 86 +39 +41 очень
душно
1010.9 1011.0 +24.6 +35.2
06 11.11 З 2 10 км 6/1 600 м
[Sc diur, vesp Ac trans Ci sp]
+33.0 +23.5 58 +44 +55 опасность
перегрева
1010.0 1010.0
09 11.11 З 2 10 км 9/3 600 м
[Sc diur, vesp Ac As Ci fib]
+32.8 +25.5 66 +48 +52 опасность
перегрева
1007.6 1008.0
12 11.11 З 2 10 км 9/3 600 м
[Sc diur, vesp Ac As Ci sp]
+30.0 +24.9 74 +43 +43 опасность
перегрева
1007.1 1007.0 +33.8
15 11.11 В 2 4000 м 5/1 600 м
[Sc diur, vesp Ac trans Ci sp]
+27.6 +24.4 83 +39 +39 очень
душно
1009.3 1009.0
18 11.11 штиль 0 4000 м 5/3 600 м
[Sc diur, vesp Ac trans]
+26.2 +24.7 91 +37 +37 очень
душно
1009.5 1010.0
21 11.11 штиль 0 4000 м 6/1 600 м
[Sc diur, vesp Ac trans Ci fib]
+26.0 +24.6 92 +37 +37 очень
душно
1008.0 1008.0
00 12.11 штиль 0 4000 м 5/1 600 м
[Sc diur, vesp Ac trans Ci sp]
+24.0 +22.8 93 +32 +32 очень
душно
1008.0 1008.0
03 12.11 В 2 10 км 6/1 600 м
[Sc diur, vesp Ac trans Ci sp]
+25.8 +23.2 86 +35 +37 очень
душно
1010.2 1010.0 +23.6 +33.8
06 12.11 СВ 2 10 км 6/1 600 м
[Sc diur, vesp Ac trans Ci fib]
+32.6 +24.7 63 +46 +56 опасность
перегрева
1009.6 1010.0
09 12.11 СВ 2 10 км 4/3 600 м
[Sc diur, vesp Ci sp]
+33.0 +24.5 61 +46 +54 опасность
перегрева
1007.7 1008.0
12 12.11 В 1 10 км 3/1 600 м
[Sc diur, vesp Ci sp]
+31.0 +25.4 72 +45 +46 опасность
перегрева
1006.9 1007.0 +34.8
15 12.11 штиль 0 4000 м 3/3 600 м
[Sc diur, vesp]
+28.0 +23.7 77 +38 +38 очень
душно
1008.9 1009.0
18 12.11 штиль 0 4000 м 1/1 600 м
[Sc diur, vesp]
+27.0 +23.2 80 +36 +36 очень
душно
1009.1 1009.0
21 12.11 штиль 0 4000 м ясно +25.0 +23.5 91 +34 +34 очень
душно
1007.5 1008.0
00 13.11 штиль 0 4000 м мгла ясно +24.0 +23.1 95 +32 +32 очень
душно
1007.5 1008.0
03 13.11 В 1 10 км 3/0
[Ci sp]
+26.0 +23.1 84 +35 +39 очень
душно
1009.8 1010.0 +23.5 +34.8
06 13.11 В 2 10 км 3/1 600 м
[Sc diur, vesp Ci sp]
+32.6 +25.4 66 +47 +61 опасность
перегрева
1009.4 1009.0
09 13.11 С 2 10 км 3/1 600 м
[Sc diur, vesp Ci sp]
+33.0 +24.3 60 +45 +56 опасность
перегрева
1006.5 1007.0
12 13.11 СВ 1 10 км 3/0
[Ci sp]
+30.4 +25.6 76 +45 +46 опасность
перегрева
1006.2 1006.0 +35.2
15 13.11 штиль 0 4000 м 1/1 600 м
[Sc diur, vesp]
+27.6 +22.9 76 +37 +37 очень
душно
1009.3 1009.0
18 13.11 штиль 0 4000 м ясно +26.6 +23.1 81 +36 +36 очень
душно
1008.7 1009.0
21 13.11 штиль 0 4000 м ясно +25.0 +23.5 91 +34 +34 очень
душно
1007.1 1007.0
00 14.11 штиль 0 4000 м 3/3 600 м
[Sc diur, vesp]
+24.8 +23.6 93 +34 +34 очень
душно
1007.4 1007.0
03 14.11 В 1 10 км 3/1 600 м
[Sc diur, vesp Ci sp]
+26.4 +23.0 82 +35 +39 очень
душно
1009.7 1010.0 +24.2 +35.2
06 14.11 В 1 10 км 3/1 600 м
[Sc diur, vesp Ci sp]
+32.0 +23.8 62 +43 +59 опасность
перегрева
1009.2 1009.0
09 14.11 З 1 10 км 3/1 600 м
[Sc diur, vesp Ci sp]
+33.2 +24.1 59 +45 +57 опасность
перегрева
1006.0 1006.0
12 14.11 З 1 10 км 5/3 600 м
[Sc diur, vesp Ac trans Ci sp]
+30.8 +24.2 68 +43 +43 опасность
перегрева
1006.5 1007.0 +34.2
15 14.11 З 1 4000 м 5/3 600 м
[Sc diur, vesp Ci sp]
+28.2 +23.6 76 +38 +38 очень
душно
1008.9 1009.0
18 14.11 штиль 0 4000 м 3/1 600 м
[Sc diur, vesp Ci sp]
+26.2 +22.0 78 +34 +34 очень
душно
1008.8 1009.0
21 14.11 штиль 0 4000 м 3/0
[Ci sp]
+25.0 +22.0 83 +32 +32 очень
душно
1007.3 1007.0
00 15.11 штиль 0 4000 м 4/0
[Ac trans Ci sp]
+25.0 +22.3 85 +33 +33 очень
душно
1007.7 1008.0
03 15.11 штиль 0 10 км 1/0
[Ci sp]
+27.4 +22.7 76 +36 +41 очень
душно
1010.1 1010.0 +24.1 +34.2
06 15.11 штиль 0 10 км 1/1 600 м
[Sc diur, vesp]
+33.0 +23.8 59 +45 +63 опасность
перегрева
1010.0 1010.0
09 15.11 СЗ 1 10 км 5/1 600 м
[Sc diur, vesp Ac trans Ci sp]
+33.4 +24.3 59 +46 +55 опасность
перегрева
1007.4 1007.0
12 15.11 СЗ 1 10 км 4/1 600 м
[Sc diur, vesp Ci sp]
+30.0 +23.7 69 +41 +42 опасность
перегрева
1006.9 1007.0 +34.7
15 15.11 штиль 0 4000 м 3/0
[Ci sp]
+27.0 +22.9 78 +36 +36 очень
душно
1008.9 1009.0
18 15.11 штиль 0 4000 м 1/0
[Ci sp]
+26.0 +22.8 83 +35 +35 очень
душно
1009.5 1010.0
21 15.11 В 1 4000 м 1/0
[Ci sp]
+25.0 +22.6 87 +33 +33 очень
душно
1007.7 1008.0
00 16.11 штиль 0 4000 м 3/0
[Ci sp]
+24.2 +22.4 90 +32 +32 очень
душно
1008.2 1008.0
03 16.11 В 1 4000 м 1/0
[Ci sp]
+26.8 +22.7 78 +35 +40 очень
душно
1010.1 1010.0 +23.8 +34.7
06 16.11 З 1 10 км ясно +33.0 +22.9 55 +43 +61 опасность
перегрева
1009.7 1010.0
09 16.11 ЮЗ 1 10 км ясно +34.0 +25.6 62 +49 +63 опасность
перегрева
1007.6 1008.0
12 16.11 штиль 0 10 км 4/1 600 м
[Sc diur, vesp Ci sp]
+31.0 +24.4 68 +43 +44 опасность
перегрева
1007.3 1007.0 +34.5
15 16.11 СЗ 1 4000 м ясно +28.0 +22.1 70 +36 +36 очень
душно
1009.1 1009.0
18 16.11 штиль 0 4000 м ясно +26.6 +23.1 81 +36 +36 очень
душно
1009.6 1010.0
21 16.11 штиль 0 4000 м ясно +25.4 +22.3 83 +33 +33 очень
душно
1008.1 1008.0
00 17.11 штиль 0 4000 м ясно +25.0 +23.5 91 +34 +34 очень
душно
1008.1 1008.0
03 17.11 СВ 1 10 км 10/4 600 м
[Sc diur, vesp Ac As Ci sp]
+26.4 +22.6 80 +35 +36 очень
душно
1010.0 1010.0 +24.6 +34.5
06 17.11 В 1 10 км 4/1 600 м
[Sc diur, vesp Ac trans Ci sp]
+33.0 +25.4 64 +47 +60 опасность
перегрева
1010.0 1010.0
09 17.11 ЮЗ 2 10 км ясно +34.2 +25.5 61 +49 +62 опасность
перегрева
1006.8 1007.0
12 17.11 З 1 10 км ясно +31.4 +25.4 71 +46 +46 опасность
перегрева
1006.4 1006.0 +35.1
15 17.11 штиль 0 4000 м ясно +29.2 +24.6 76 +41 +41 опасность
перегрева
1008.3 1008.0
18 17.11 штиль 0 4000 м ясно +27.2 +23.1 78 +36 +36 очень
душно
1009.3 1009.0

 

Местоположение метеостанции Kozhikode (Kerala, Индия): широта 11.25 долгота 75.78 высота над уровнем моря 5 м.

В архиве по умолчанию представлена погода в Kozhikode за последнюю неделю. Архивные данные за месяц целиком и за предыдущие месяцы, начиная с января 2011 года, Вы можете получить, выбрав интересующий диапазон дат из раскрывающегося списка и нажав кнопку "Ввод!".

Внимание! Время в таблицах - всемирное. Для получения местного времени необходимо прибавить поправку, которая в Kozhikode равна 5.5 ч.

Смотрите также архив погоды в соседних городах и на ближайших метеорологических станциях:

Погода в Karipur (Kerala, Индия) (23 км)
Погода в Cannanore (Kerala, Индия) (81 км)
Погода в Thrissur (Kerala, Индия) (94 км)
Погода в Udhagamandalam (Tamil Nadu, Индия) (105 км)
Погода в Palakkad (Kerala, Индия) (109 км)
Погода в Coonoor (Tamil Nadu, Индия) (112 км)
Погода в Madikeri (Karnataka, Индия) (130 км)
Погода в Kochi (Kerala, Индия) (140 км)
Погода в Coimbatore (Tamil Nadu, Индия) (141 км)
Погода в Chamarajnagar (Karnataka, Индия) (146 км)

Пояснения к столбцам:

Ветер - указаны скорость ветра в м/с - средняя за 10 мин, порывы в срок и между сроками (в фигурных скобках) и направление, откуда дует ветер: С - северный, СВ - северо-восточный, В - восточный, ЮВ - юго-восточный, Ю - южный, ЮЗ - юго-западный, З - западный, СЗ - северо-западный.
Видимость - горизонтальная дальность видимости в метрах или километрах. При видимости от 1 до 10 км при отсутствии осадков обычно наблюдается дымка, при ухудшении видимости до 1 км и менее - туман. В сухую погоду видимость может ухудшаться дымом, пылью или мглою.
Явления - указаны атмосферные явления, наблюдавшиеся в срок или в последний час перед сроком; фигурными скобками обозначены явления, наблюдавшиеся между сроками (за 1-3 часа до срока); квадратными скобками обозначены град или гололедные отложения с указанием их диаметра в мм.
Облачность - указаны через наклонную черту общая и нижняя облачность в баллах и высота нижней границы облаков в метрах; квадратными скобками обозначены формы облаков: Ci - перистые, Cs - перисто-слоистые, Cc - перисто-кучевые, Ac - высококучевые, As - высокослоистые, Sc - слоисто-кучевые, Ns - слоисто-дождевые, Cu - кучевые, Cb - кучево-дождевые. Подробнее классификацию облаков см. в Атласе облаков (PDF).
T - Температура воздуха - температура, измеренная на высоте 2 м над землей.
Td - Температура точки росы - температура, при понижении до которой содержащийся в воздухе водяной пар достигнет насыщения.
f - Относительная влажность воздуха - влажноcть воздуха, измеренная на высоте 2 м над землей.
Te - Эффективная температура - температура, которую ощущает одетый по сезону человек в тени. Характеристика душности погоды. При расчете учитывается влияние влажности воздуха и скорости ветра на теплоощущения человека.
Tes - Эффективная температура на солнце - температура, которую ощущает человек, с поправкой на солнечный нагрев. Характеристика знойности погоды. Зависит от высоты солнца над горизонтом, облачности и скорости ветра. Ночью, в пасмурную погоду, а также при ветре 12 м/с и более поправка равна нулю.
P - Атмосферное давление - приведенное к уровню моря атмосферное давление.
Po - Атмосферное давление - измеренное на уровне метеостанции атмосферное давление.
Tmin - Минимальная температура - минимум температуры воздуха на высоте 2 м над землей.
Tmax - Максимальная температура - максимум температуры воздуха на высоте 2 м над землей.
R - Количество осадков - Количество выпавших осадков за период времени, мм. При наведении курсора мыши на число - период времени, за который выпало указанное количество осадков.
R24 - Количество осадков - Количество выпавших осадков за 24 часа, мм.
S - Снежный покров - Высота снежного покрова, см. При наведении курсора мыши на число - состояние снежного покрова и степень покрытия местности в баллах.